TimeCST,TemperatureF,Dew PointF,Humidity,Sea Level PressureIn,VisibilityMPH,Wind Direction,Wind SpeedMPH,Gust SpeedMPH,PrecipitationIn,Events,Conditions,WindDirDegrees,DateUTC
12:15 AM,-7.6,-18.4,59,30.31,10.0,NW,21.9,28.8,N/A,,Scattered Clouds,310,2013-01-21 06:15:00
12:36 AM,-9.4,-16.6,71,30.31,3.0,NW,26.5,31.1,N/A,,Haze,310,2013-01-21 06:36:00
1:35 AM,-11.2,-18.4,70,30.32,10.0,NW,19.6,24.2,N/A,,Clear,310,2013-01-21 07:35:00
1:55 AM,-11.2,-20.2,64,30.32,10.0,NW,21.9,26.5,N/A,,Clear,310,2013-01-21 07:55:00
2:15 AM,-11.2,-20.2,64,30.33,10.0,NW,17.3,-,N/A,,Clear,310,2013-01-21 08:15:00
2:35 AM,-11.2,-20.2,64,30.34,10.0,WNW,15.0,-,N/A,,Clear,300,2013-01-21 08:35:00
2:55 AM,-11.2,-20.2,64,30.34,10.0,WNW,15.0,18.4,N/A,,Clear,300,2013-01-21 08:55:00
3:15 AM,-11.2,-20.2,64,30.34,10.0,WNW,15.0,-,N/A,,Clear,300,2013-01-21 09:15:00
3:35 AM,-11.2,-20.2,64,30.33,10.0,NW,15.0,-,N/A,,Clear,310,2013-01-21 09:35:00
3:55 AM,-11.2,-20.2,64,30.33,10.0,WNW,13.8,20.7,N/A,,Clear,300,2013-01-21 09:55:00
4:35 AM,-13.0,-20.2,70,30.32,10.0,WNW,12.7,-,N/A,,Clear,300,2013-01-21 10:35:00
4:55 AM,-13.0,-20.2,70,30.32,10.0,WNW,11.5,-,N/A,,Clear,290,2013-01-21 10:55:00
5:16 AM,-13.0,-20.2,70,30.32,10.0,WNW,12.7,-,N/A,,Clear,290,2013-01-21 11:16:00
5:35 AM,-13.0,-20.2,70,30.32,10.0,WNW,15.0,-,N/A,,Clear,300,2013-01-21 11:35:00
5:55 AM,-13.0,-20.2,70,30.32,10.0,WNW,13.8,-,N/A,,Clear,300,2013-01-21 11:55:00
6:16 AM,-13.0,-20.2,70,30.32,10.0,WNW,10.4,-,N/A,,Clear,290,2013-01-21 12:16:00
6:35 AM,-13.0,-20.2,70,30.31,10.0,WNW,11.5,-,N/A,,Clear,300,2013-01-21 12:35:00
6:55 AM,-13.0,-22.0,64,30.31,10.0,WNW,10.4,-,N/A,,Clear,290,2013-01-21 12:55:00
7:15 AM,-13.0,-22.0,64,30.31,10.0,WNW,12.7,-,N/A,,Clear,300,2013-01-21 13:15:00
7:35 AM,-13.0,-22.0,64,30.31,10.0,WNW,10.4,-,N/A,,Clear,290,2013-01-21 13:35:00
7:55 AM,-13.0,-20.2,70,30.31,10.0,WNW,13.8,-,N/A,,Clear,300,2013-01-21 13:55:00
8:15 AM,-13.0,-20.2,70,30.31,10.0,WNW,10.4,-,N/A,,Clear,290,2013-01-21 14:15:00
8:35 AM,-13.0,-22.0,64,30.32,10.0,WNW,12.7,-,N/A,,Clear,300,2013-01-21 14:35:00
8:55 AM,-13.0,-20.2,70,30.32,10.0,WNW,12.7,16.1,N/A,,Clear,300,2013-01-21 14:55:00
9:15 AM,-13.0,-20.2,70,30.33,10.0,NW,11.5,-,N/A,,Clear,310,2013-01-21 15:15:00
9:36 AM,-11.2,-20.2,64,30.34,10.0,WNW,15.0,-,N/A,,Clear,300,2013-01-21 15:36:00
9:55 AM,-11.2,-20.2,64,30.34,10.0,NW,17.3,-,N/A,,Clear,310,2013-01-21 15:55:00
10:15 AM,-11.2,-20.2,64,30.34,10.0,WNW,17.3,20.7,N/A,,Clear,300,2013-01-21 16:15:00
10:36 AM,-11.2,-20.2,64,30.35,10.0,NW,16.1,-,N/A,,Clear,310,2013-01-21 16:36:00
10:55 AM,-11.2,-20.2,64,30.35,10.0,WNW,16.1,-,N/A,,Clear,300,2013-01-21 16:55:00
11:15 AM,-9.4,-20.2,59,30.34,10.0,WNW,16.1,21.9,N/A,,Clear,300,2013-01-21 17:15:00
11:36 AM,-9.4,-20.2,59,30.33,10.0,NW,19.6,-,N/A,,Clear,310,2013-01-21 17:36:00
11:55 AM,-9.4,-18.4,65,30.32,10.0,NW,15.0,-,N/A,,Clear,310,2013-01-21 17:55:00
12:15 PM,-9.4,-18.4,65,30.32,7.0,WNW,13.8,20.7,N/A,,Clear,300,2013-01-21 18:15:00
12:34 PM,-7.6,-18.4,59,30.31,10.0,WNW,18.4,-,N/A,,Clear,290,2013-01-21 18:34:00
12:55 PM,-7.6,-16.6,65,30.30,7.0,West,16.1,-,N/A,,Clear,280,2013-01-21 18:55:00
1:15 PM,-7.6,-16.6,65,30.30,7.0,WNW,16.1,20.7,N/A,,Clear,300,2013-01-21 19:15:00
1:35 PM,-7.6,-16.6,65,30.29,5.0,WNW,16.1,-,N/A,,Haze,300,2013-01-21 19:35:00
1:55 PM,-5.8,-16.6,60,30.28,10.0,WNW,16.1,21.9,N/A,,Clear,300,2013-01-21 19:55:00
2:15 PM,-5.8,-16.6,60,30.28,7.0,WNW,17.3,24.2,N/A,,Clear,300,2013-01-21 20:15:00
2:35 PM,-5.8,-16.6,60,30.28,7.0,WNW,17.3,-,N/A,,Clear,290,2013-01-21 20:35:00
2:55 PM,-5.8,-14.8,65,30.28,7.0,WNW,16.1,-,N/A,,Scattered Clouds,300,2013-01-21 20:55:00
3:15 PM,-5.8,-14.8,65,30.28,10.0,WNW,15.0,-,N/A,,Clear,290,2013-01-21 21:15:00
3:35 PM,-5.8,-14.8,65,30.28,5.0,NW,16.1,-,N/A,,Haze,310,2013-01-21 21:35:00
3:55 PM,-4.0,-14.8,60,30.27,10.0,WNW,13.8,18.4,N/A,,Clear,300,2013-01-21 21:55:00
4:15 PM,-4.0,-14.8,60,30.27,10.0,WNW,13.8,-,N/A,,Clear,300,2013-01-21 22:15:00
4:35 PM,-4.0,-14.8,60,30.27,10.0,WNW,11.5,-,N/A,,Clear,290,2013-01-21 22:35:00
5:16 PM,-5.8,-13.0,71,30.27,10.0,WNW,6.9,-,N/A,,Clear,290,2013-01-21 23:16:00
5:35 PM,-5.8,-14.8,65,30.27,10.0,West,5.8,-,N/A,,Clear,280,2013-01-21 23:35:00
5:55 PM,-5.8,-14.8,65,30.27,10.0,West,4.6,-,N/A,,Clear,280,2013-01-21 23:55:00
6:16 PM,-7.6,-14.8,71,30.27,10.0,West,4.6,-,N/A,,Clear,260,2013-01-22 00:16:00
6:55 PM,-7.6,-14.8,71,30.27,10.0,Calm,Calm,-,N/A,,Clear,0,2013-01-22 00:55:00
7:16 PM,-7.6,-14.8,71,30.27,10.0,Calm,Calm,-,N/A,,Clear,0,2013-01-22 01:16:00
7:35 PM,-9.4,-14.8,77,30.27,10.0,Calm,Calm,-,N/A,,Clear,0,2013-01-22 01:35:00
7:55 PM,-7.6,-14.8,71,30.27,10.0,Calm,Calm,-,N/A,,Clear,0,2013-01-22 01:55:00
8:16 PM,-9.4,-14.8,77,30.27,10.0,WSW,3.5,-,N/A,,Clear,240,2013-01-22 02:16:00
8:35 PM,-9.4,-16.6,71,30.27,10.0,WSW,4.6,-,N/A,,Clear,240,2013-01-22 02:35:00
8:55 PM,-9.4,-14.8,77,30.27,10.0,West,3.5,-,N/A,,Clear,260,2013-01-22 02:55:00
9:16 PM,-9.4,-16.6,71,30.27,10.0,West,4.6,-,N/A,,Clear,280,2013-01-22 03:16:00
9:35 PM,-7.6,-14.8,71,30.28,10.0,WNW,9.2,-,N/A,,Clear,300,2013-01-22 03:35:00
9:55 PM,-7.6,-14.8,71,30.28,10.0,WNW,8.1,-,N/A,,Clear,300,2013-01-22 03:55:00
10:15 PM,-7.6,-14.8,71,30.28,10.0,WNW,8.1,-,N/A,,Clear,290,2013-01-22 04:15:00
10:35 PM,-7.6,-16.6,65,30.28,10.0,West,5.8,-,N/A,,Clear,280,2013-01-22 04:35:00
10:55 PM,-9.4,-16.6,71,30.28,10.0,West,6.9,-,N/A,,Clear,280,2013-01-22 04:55:00
11:15 PM,-9.4,-16.6,71,30.29,10.0,WNW,5.8,-,N/A,,Clear,290,2013-01-22 05:15:00
11:36 PM,-9.4,-16.6,71,30.29,10.0,WNW,6.9,-,N/A,,Clear,300,2013-01-22 05:36:00
11:55 PM,-9.4,-16.6,71,30.30,10.0,WNW,6.9,-,N/A,,Clear,290,2013-01-22 05:55:00